,,Stat6,,Stat2,,Stat8,,Stat9,,Stat10,,Wind1,,Wind1,
time,status,PA1M_AVG,status,PR1M_SUM,status,RH1M_AVG,status,SR1M_AVG,status,TA1M_AVG,status,W1dAve1m,status,W1sAve1m,
2007-10-25, 00:00:00,VALID,917.21,VALID,0,VALID,98.8545,VALID,-0.0339617,VALID,19.6699,VALID,51,VALID,0.848772,
2007-10-25, 00:01:00,VALID,917.191,VALID,0,VALID,98.8787,VALID,-0.0339617,VALID,19.6499,VALID,54,VALID,0.503534,
2007-10-25, 00:02:00,VALID,917.206,VALID,0,VALID,99.0389,VALID,-0.0339617,VALID,19.6237,VALID,43,VALID,0.0533203,
2007-10-25, 00:03:00,VALID,917.205,VALID,0,VALID,99.3797,VALID,-0.0679233,VALID,19.6474,VALID,16,VALID,0.443576,
2007-10-25, 00:04:00,VALID,917.191,VALID,0,VALID,99.5387,VALID,-0.0679233,VALID,19.6277,VALID,29,VALID,0.242018,
2007-10-25, 00:05:00,VALID,917.173,VALID,0,VALID,99.5158,VALID,-0.0679233,VALID,19.5952,VALID,39,VALID,0.77763,
2007-10-25, 00:06:00,VALID,917.174,VALID,0,VALID,99.4395,VALID,-0.0509425,VALID,19.5882,VALID,45,VALID,0.756177,
2007-10-25, 00:07:00,VALID,917.153,VALID,0,VALID,99.4268,VALID,-0.0509425,VALID,19.6017,VALID,42,VALID,0.0900298,
2007-10-25, 00:08:00,VALID,917.153,VALID,0,VALID,99.5666,VALID,-0.0169808,VALID,19.6045,VALID,41,VALID,0.273256,
2007-10-25, 00:09:00,VALID,917.146,VALID,0,VALID,99.8489,VALID,-0.0169808,VALID,19.6137,VALID,40,VALID,0,
2007-10-25, 00:10:00,VALID,917.146,VALID,0,VALID,99.9644,VALID,-0.0169808,VALID,19.6072,VALID,40,VALID,0,
2007-10-25, 00:11:00,VALID,917.138,VALID,0,VALID,100,VALID,-0.0339617,VALID,19.598,VALID,40,VALID,0.202195,
2007-10-25, 00:12:00,VALID,917.131,VALID,0,VALID,100,VALID,-0.0339617,VALID,19.5845,VALID,23,VALID,0.186955,
2007-10-25, 00:13:00,VALID,917.12,VALID,0,VALID,100,VALID,0,VALID,19.5942,VALID,17,VALID,0,
2007-10-25, 00:14:00,VALID,917.116,VALID,0,VALID,100,VALID,-0.0169808,VALID,19.6075,VALID,17,VALID,0,
2007-10-25, 00:15:00,VALID,917.118,VALID,0,VALID,100,VALID,-0.0169808,VALID,19.5975,VALID,17,VALID,0,
2007-10-25, 00:16:00,VALID,917.111,VALID,0,VALID,100,VALID,-0.0509425,VALID,19.5985,VALID,17,VALID,0,
2007-10-25, 00:17:00,VALID,917.11,VALID,0,VALID,100,VALID,-0.0339617,VALID,19.5556,VALID,28,VALID,0.408381,
2007-10-25, 00:18:00,VALID,917.116,VALID,0,VALID,100,VALID,0,VALID,19.5456,VALID,38,VALID,0.256541,
2007-10-25, 00:19:00,VALID,917.109,VALID,0,VALID,100,VALID,0,VALID,19.5361,VALID,38,VALID,0.0614347,
2007-10-25, 00:20:00,VALID,917.111,VALID,0,VALID,100,VALID,0.0169808,VALID,19.5426,VALID,38,VALID,0.178977,
2007-10-25, 00:21:00,VALID,917.101,VALID,0,VALID,100,VALID,0,VALID,19.5296,VALID,38,VALID,0,
2007-10-25, 00:22:00,VALID,917.091,VALID,0,VALID,100,VALID,-0.0509425,VALID,19.5333,VALID,33,VALID,0.0599609,
2007-10-25, 00:23:00,VALID,917.086,VALID,0,VALID,100,VALID,-0.0339617,VALID,19.5171,VALID,42,VALID,0.435454,
2007-10-25, 00:24:00,VALID,917.079,VALID,0,VALID,100,VALID,-0.0339617,VALID,19.4882,VALID,49,VALID,0.640811,
2007-10-25, 00:25:00,VALID,917.085,VALID,0,VALID,100,VALID,-0.0169808,VALID,19.4295,VALID,72,VALID,0.855097,
2007-10-25, 00:26:00,VALID,917.072,VALID,0,VALID,100,VALID,0,VALID,19.4263,VALID,52,VALID,0.442073,
2007-10-25, 00:27:00,VALID,917.065,VALID,0,VALID,100,VALID,0,VALID,19.4258,VALID,57,VALID,0.733594,
2007-10-25, 00:28:00,VALID,917.06,VALID,0,VALID,99.999,VALID,0,VALID,19.439,VALID,66,VALID,0.434451,
2007-10-25, 00:29:00,VALID,917.052,VALID,0,VALID,99.9151,VALID,0,VALID,19.4418,VALID,51,VALID,0.0960938,
2007-10-25, 00:30:00,VALID,917.054,VALID,0,VALID,99.7637,VALID,-0.0339617,VALID,19.4483,VALID,51,VALID,0.087391,
2007-10-25, 00:31:00,VALID,917.049,VALID,0,VALID,99.7485,VALID,0,VALID,19.4587,VALID,51,VALID,0,
2007-10-25, 00:32:00,VALID,917.035,VALID,0,VALID,99.8502,VALID,-0.0169808,VALID,19.448,VALID,51,VALID,0,
2007-10-25, 00:33:00,VALID,917.038,VALID,0,VALID,99.8515,VALID,-0.0509425,VALID,19.4749,VALID,51,VALID,0,
2007-10-25, 00:34:00,VALID,917.028,VALID,0,VALID,99.8693,VALID,0,VALID,19.4779,VALID,51,VALID,0,
2007-10-25, 00:35:00,VALID,917.005,VALID,0,VALID,100,VALID,-0.0509425,VALID,19.5009,VALID,51,VALID,0,
2007-10-25, 00:36:00,VALID,917.009,VALID,0,VALID,99.8703,VALID,-0.0169808,VALID,19.4939,VALID,51,VALID,0,
2007-10-25, 00:37:00,VALID,916.997,VALID,0,VALID,99.8184,VALID,-0.0169808,VALID,19.5071,VALID,51,VALID,0,
2007-10-25, 00:38:00,VALID,916.992,VALID,0,VALID,99.9557,VALID,-0.0169808,VALID,19.5361,VALID,51,VALID,0,
2007-10-25, 00:39:00,VALID,916.984,VALID,0,VALID,99.999,VALID,-0.0169808,VALID,19.5526,VALID,51,VALID,0,
2007-10-25, 00:40:00,VALID,916.971,VALID,0,VALID,100,VALID,-0.0169808,VALID,19.5523,VALID,51,VALID,0,
2007-10-25, 00:41:00,VALID,916.972,VALID,0,VALID,99.9919,VALID,-0.0169808,VALID,19.5328,VALID,52,VALID,0.183966,
2007-10-25, 00:42:00,VALID,916.978,VALID,0,VALID,99.9481,VALID,-0.0339617,VALID,19.5161,VALID,53,VALID,0.154978,
2007-10-25, 00:43:00,VALID,916.969,VALID,0,VALID,99.9746,VALID,-0.0169808,VALID,19.5139,VALID,55,VALID,0,
2007-10-25, 00:44:00,VALID,916.955,VALID,0,VALID,100,VALID,-0.0339617,VALID,19.5141,VALID,54,VALID,0.0355283,
2007-10-25, 00:45:00,VALID,916.966,VALID,0,VALID,100,VALID,-0.0339617,VALID,19.5007,VALID,53,VALID,0.11128,
2007-10-25, 00:46:00,VALID,916.971,VALID,0,VALID,100,VALID,-0.0339617,VALID,19.4939,VALID,53,VALID,0,
2007-10-25, 00:47:00,VALID,916.946,VALID,0,VALID,100,VALID,-0.0679233,VALID,19.4944,VALID,53,VALID,0,
2007-10-25, 00:48:00,VALID,916.939,VALID,0,VALID,100,VALID,0,VALID,19.4844,VALID,53,VALID,0,
2007-10-25, 00:49:00,VALID,916.9,VALID,0,VALID,100,VALID,-0.0339617,VALID,19.4779,VALID,53,VALID,0,
2007-10-25, 00:50:00,VALID,916.894,VALID,0,VALID,100,VALID,-0.0169808,VALID,19.461,VALID,53,VALID,0,
2007-10-25, 00:51:00,VALID,916.877,VALID,0,VALID,100,VALID,-0.0169808,VALID,19.4515,VALID,53,VALID,0,
2007-10-25, 00:52:00,VALID,916.869,VALID,0,VALID,100,VALID,-0.0169808,VALID,19.438,VALID,53,VALID,0,
2007-10-25, 00:53:00,VALID,916.853,VALID,0,VALID,100,VALID,0,VALID,19.4547,VALID,53,VALID,0,
2007-10-25, 00:54:00,VALID,916.841,VALID,0,VALID,100,VALID,-0.0339617,VALID,19.468,VALID,53,VALID,0,
2007-10-25, 00:55:00,VALID,916.832,VALID,0,VALID,100,VALID,-0.0169808,VALID,19.4517,VALID,53,VALID,0,
2007-10-25, 00:56:00,VALID,916.813,VALID,0,VALID,100,VALID,-0.0169808,VALID,19.4385,VALID,53,VALID,0,
2007-10-25, 00:57:00,VALID,916.802,VALID,0,VALID,100,VALID,-0.0169808,VALID,19.4288,VALID,53,VALID,0,
2007-10-25, 00:58:00,VALID,916.777,VALID,0,VALID,100,VALID,-0.0339617,VALID,19.4195,VALID,53,VALID,0.0392628,
2007-10-25, 00:59:00,VALID,916.76,VALID,0,VALID,100,VALID,0,VALID,19.3901,VALID,53,VALID,0.430959,
2007-10-25, 01:00:00,VALID,916.748,VALID,0,VALID,100,VALID,0,VALID,19.3607,VALID,55,VALID,0.50279,
2007-10-25, 01:01:00,VALID,916.746,VALID,0,VALID,100,VALID,-0.0339617,VALID,19.3382,VALID,55,VALID,0.46076,
2007-10-25, 01:02:00,VALID,916.732,VALID,0,VALID,100,VALID,-0.0509425,VALID,19.3422,VALID,55,VALID,0.363372,
2007-10-25, 01:03:00,VALID,916.725,VALID,0,VALID,100,VALID,-0.0169808,VALID,19.3315,VALID,53,VALID,0.667969,
2007-10-25, 01:04:00,VALID,916.721,VALID,0,VALID,100,VALID,-0.0509425,VALID,19.3674,VALID,39,VALID,0.68471,
2007-10-25, 01:05:00,VALID,916.7,VALID,0,VALID,100,VALID,-0.0339617,VALID,19.3901,VALID,42,VALID,0.579215,
2007-10-25, 01:06:00,VALID,916.687,VALID,0,VALID,100,VALID,-0.0169808,VALID,19.4128,VALID,44,VALID,0.613372,
2007-10-25, 01:07:00,VALID,916.684,VALID,0,VALID,100,VALID,0,VALID,19.4295,VALID,44,VALID,0.667708,
2007-10-25, 01:08:00,VALID,916.658,VALID,0,VALID,100,VALID,-0.0509425,VALID,19.445,VALID,43,VALID,0.550327,
2007-10-25, 01:09:00,VALID,916.645,VALID,0,VALID,100,VALID,-0.0339617,VALID,19.4645,VALID,51,VALID,0.629179,
2007-10-25, 01:10:00,VALID,916.628,VALID,0,VALID,100,VALID,-0.0509425,VALID,19.474,VALID,46,VALID,0.853743,
2007-10-25, 01:11:00,VALID,916.626,VALID,0,VALID,99.9791,VALID,-0.0339617,VALID,19.4742,VALID,43,VALID,0.462426,
2007-10-25, 01:12:00,VALID,916.612,VALID,0,VALID,99.924,VALID,-0.0339617,VALID,19.4804,VALID,51,VALID,0.511161,
2007-10-25, 01:13:00,VALID,916.597,VALID,0,VALID,99.9303,VALID,0,VALID,19.4837,VALID,54,VALID,0.458841,
2007-10-25, 01:14:00,VALID,916.57,VALID,0,VALID,99.9481,VALID,0,VALID,19.4804,VALID,65,VALID,0.774325,
2007-10-25, 01:15:00,VALID,916.569,VALID,0,VALID,99.9163,VALID,0,VALID,19.4837,VALID,71,VALID,0.52077,
2007-10-25, 01:16:00,VALID,916.569,VALID,0,VALID,99.9087,VALID,-0.0339617,VALID,19.4874,VALID,67,VALID,0.559375,
2007-10-25, 01:17:00,VALID,916.571,VALID,0,VALID,99.9125,VALID,-0.0169808,VALID,19.4807,VALID,67,VALID,0.452035,
2007-10-25, 01:18:00,VALID,916.578,VALID,0,VALID,99.9023,VALID,-0.0339617,VALID,19.4642,VALID,67,VALID,0.261719,
2007-10-25, 01:19:00,VALID,916.572,VALID,0,VALID,99.9392,VALID,-0.0169808,VALID,19.4707,VALID,67,VALID,0.0920759,
2007-10-25, 01:20:00,VALID,916.558,VALID,0,VALID,99.8973,VALID,0,VALID,19.4642,VALID,67,VALID,0,
2007-10-25, 01:21:00,VALID,916.542,VALID,0,VALID,99.9822,VALID,-0.0339617,VALID,19.4645,VALID,67,VALID,0,
2007-10-25, 01:22:00,VALID,916.538,VALID,0,VALID,100,VALID,-0.0339617,VALID,19.4779,VALID,67,VALID,0,
2007-10-25, 01:23:00,VALID,916.523,VALID,0,VALID,99.9903,VALID,-0.0169808,VALID,19.461,VALID,67,VALID,0,
2007-10-25, 01:24:00,VALID,916.518,VALID,0,VALID,99.9303,VALID,-0.0169808,VALID,19.4483,VALID,67,VALID,0,
2007-10-25, 01:25:00,VALID,916.528,VALID,0,VALID,99.9583,VALID,0,VALID,19.4453,VALID,67,VALID,0,
2007-10-25, 01:26:00,VALID,916.507,VALID,0,VALID,99.957,VALID,-0.0169808,VALID,19.4315,VALID,67,VALID,0,
2007-10-25, 01:27:00,VALID,916.512,VALID,0,VALID,99.9341,VALID,0,VALID,19.4288,VALID,67,VALID,0.132431,
2007-10-25, 01:28:00,VALID,916.51,VALID,0,VALID,99.9214,VALID,0.0169808,VALID,19.423,VALID,66,VALID,0.515625,
2007-10-25, 01:29:00,VALID,916.496,VALID,0,VALID,99.9771,VALID,-0.0169808,VALID,19.4191,VALID,66,VALID,0.485814,
2007-10-25, 01:30:00,VALID,916.486,VALID,0,VALID,99.9532,VALID,-0.0339617,VALID,19.4156,VALID,66,VALID,0.50372,
2007-10-25, 01:31:00,VALID,916.475,VALID,0,VALID,99.9481,VALID,-0.0509425,VALID,19.4091,VALID,65,VALID,0.298651,
2007-10-25, 01:32:00,VALID,916.483,VALID,0,VALID,99.9468,VALID,-0.0339617,VALID,19.4156,VALID,65,VALID,0,
2007-10-25, 01:33:00,VALID,916.475,VALID,0,VALID,99.9481,VALID,0,VALID,19.4023,VALID,61,VALID,0.123183,
2007-10-25, 01:34:00,VALID,916.481,VALID,0,VALID,99.9906,VALID,0.0169808,VALID,19.4021,VALID,56,VALID,0.0106534,
2007-10-25, 01:35:00,VALID,916.47,VALID,0,VALID,100,VALID,0.0169808,VALID,19.4251,VALID,56,VALID,0,
2007-10-25, 01:36:00,VALID,916.463,VALID,0,VALID,100,VALID,0,VALID,19.4385,VALID,56,VALID,0,
2007-10-25, 01:37:00,VALID,916.467,VALID,0,VALID,99.9954,VALID,-0.0169808,VALID,19.4253,VALID,56,VALID,0,
2007-10-25, 01:38:00,VALID,916.463,VALID,0,VALID,100,VALID,0,VALID,19.4255,VALID,56,VALID,0,
2007-10-25, 01:39:00,VALID,916.451,VALID,0,VALID,100,VALID,0,VALID,19.4151,VALID,56,VALID,0,
2007-10-25, 01:40:00,VALID,916.441,VALID,0,VALID,100,VALID,0,VALID,19.3959,VALID,56,VALID,0,
2007-10-25, 01:41:00,VALID,916.439,VALID,0,VALID,100,VALID,-0.0339617,VALID,19.3831,VALID,56,VALID,0.202363,
2007-10-25, 01:42:00,VALID,916.428,VALID,0,VALID,100,VALID,0,VALID,19.3861,VALID,56,VALID,0.572917,
2007-10-25, 01:43:00,VALID,916.407,VALID,0,VALID,100,VALID,0,VALID,19.3864,VALID,43,VALID,0.553089,
2007-10-25, 01:44:00,VALID,916.411,VALID,0,VALID,100,VALID,-0.0339617,VALID,19.3899,VALID,50,VALID,0.628348,
2007-10-25, 01:45:00,VALID,916.407,VALID,0,VALID,100,VALID,-0.0169808,VALID,19.3766,VALID,52,VALID,0.0997024,
2007-10-25, 01:46:00,VALID,916.379,VALID,0,VALID,100,VALID,-0.0169808,VALID,19.3669,VALID,52,VALID,0,
2007-10-25, 01:47:00,VALID,916.372,VALID,0,VALID,100,VALID,0.0169808,VALID,19.3799,VALID,51,VALID,0.439931,
2007-10-25, 01:48:00,VALID,916.368,VALID,0,VALID,100,VALID,-0.0339617,VALID,19.3834,VALID,48,VALID,0.565407,
2007-10-25, 01:49:00,VALID,916.352,VALID,0,VALID,100,VALID,-0.0169808,VALID,19.4028,VALID,48,VALID,0.378018,
2007-10-25, 01:50:00,VALID,916.355,VALID,0,VALID,100,VALID,-0.0169808,VALID,19.4126,VALID,48,VALID,0.0953852,
2007-10-25, 01:51:00,VALID,916.339,VALID,0,VALID,100,VALID,-0.0339617,VALID,19.4193,VALID,37,VALID,0.553385,
2007-10-25, 01:52:00,VALID,916.317,VALID,0,VALID,100,VALID,0,VALID,19.4126,VALID,44,VALID,0.469815,
2007-10-25, 01:53:00,VALID,916.323,VALID,0,VALID,100,VALID,-0.0169808,VALID,19.4026,VALID,44,VALID,0.360795,
2007-10-25, 01:54:00,VALID,916.311,VALID,0,VALID,100,VALID,-0.0169808,VALID,19.3799,VALID,44,VALID,0.424805,
2007-10-25, 01:55:00,VALID,916.309,VALID,0,VALID,100,VALID,-0.0169808,VALID,19.3701,VALID,44,VALID,0.261265,
2007-10-25, 01:56:00,VALID,916.308,VALID,0,VALID,100,VALID,-0.0169808,VALID,19.3734,VALID,44,VALID,0,
2007-10-25, 01:57:00,VALID,916.305,VALID,0,VALID,100,VALID,-0.0169808,VALID,19.3671,VALID,44,VALID,0,
2007-10-25, 01:58:00,VALID,916.289,VALID,0,VALID,100,VALID,0,VALID,19.3604,VALID,44,VALID,0,
2007-10-25, 01:59:00,VALID,916.286,VALID,0,VALID,100,VALID,0,VALID,19.3634,VALID,44,VALID,0.0880682,
2007-10-25, 02:00:00,VALID,916.27,VALID,0,VALID,100,VALID,0,VALID,19.3539,VALID,44,VALID,0,
2007-10-25, 02:01:00,VALID,916.269,VALID,0,VALID,100,VALID,-0.0339617,VALID,19.3534,VALID,44,VALID,0,
2007-10-25, 02:02:00,VALID,916.256,VALID,0,VALID,100,VALID,0,VALID,19.3569,VALID,44,VALID,0,
2007-10-25, 02:03:00,VALID,916.254,VALID,0,VALID,100,VALID,-0.0169808,VALID,19.3509,VALID,44,VALID,0,
2007-10-25, 02:04:00,VALID,916.247,VALID,0,VALID,100,VALID,-0.0169808,VALID,19.3477,VALID,44,VALID,0,
2007-10-25, 02:05:00,VALID,916.262,VALID,0,VALID,100,VALID,-0.0169808,VALID,19.3347,VALID,44,VALID,0,
2007-10-25, 02:06:00,VALID,916.258,VALID,0,VALID,100,VALID,-0.0339617,VALID,19.328,VALID,44,VALID,0,
2007-10-25, 02:07:00,VALID,916.257,VALID,0,VALID,100,VALID,-0.0169808,VALID,19.3412,VALID,44,VALID,0,
2007-10-25, 02:08:00,VALID,916.25,VALID,0,VALID,100,VALID,-0.0679233,VALID,19.3547,VALID,44,VALID,0.0918899,
2007-10-25, 02:09:00,VALID,916.24,VALID,0,VALID,100,VALID,0,VALID,19.3831,VALID,44,VALID,0.0132631,
2007-10-25, 02:10:00,VALID,916.238,VALID,0,VALID,100,VALID,-0.0849042,VALID,19.4006,VALID,59,VALID,0.395419,
2007-10-25, 02:11:00,VALID,916.214,VALID,0,VALID,100,VALID,-0.0339617,VALID,19.3966,VALID,77,VALID,0.580915,
2007-10-25, 02:12:00,VALID,916.197,VALID,0,VALID,100,VALID,-0.0509425,VALID,19.4163,VALID,77,VALID,0.519245,
2007-10-25, 02:13:00,VALID,916.193,VALID,0,VALID,100,VALID,-0.0679233,VALID,19.4156,VALID,73,VALID,0.474564,
2007-10-25, 02:14:00,VALID,916.171,VALID,0,VALID,100,VALID,-0.0849042,VALID,19.4251,VALID,71,VALID,0.342297,
2007-10-25, 02:15:00,VALID,916.164,VALID,0,VALID,100,VALID,-0.0169808,VALID,19.4448,VALID,71,VALID,0.0659299,
2007-10-25, 02:16:00,VALID,916.149,VALID,0,VALID,99.9858,VALID,-0.0339617,VALID,19.448,VALID,65,VALID,0.103198,
2007-10-25, 02:17:00,VALID,916.132,VALID,0,VALID,99.9608,VALID,-0.0509425,VALID,19.448,VALID,53,VALID,0.306686,
2007-10-25, 02:18:00,VALID,916.125,VALID,0,VALID,99.9036,VALID,-0.0169808,VALID,19.4612,VALID,52,VALID,0.0613281,
2007-10-25, 02:19:00,VALID,916.116,VALID,0,VALID,99.8591,VALID,-0.0509425,VALID,19.4577,VALID,52,VALID,0,
2007-10-25, 02:20:00,VALID,916.099,VALID,0,VALID,99.8578,VALID,0,VALID,19.4448,VALID,52,VALID,0.0012718,
2007-10-25, 02:21:00,VALID,916.09,VALID,0,VALID,99.9341,VALID,-0.0849042,VALID,19.4453,VALID,52,VALID,0.102134,
2007-10-25, 02:22:00,VALID,916.083,VALID,0,VALID,99.9507,VALID,-0.0509425,VALID,19.4517,VALID,50,VALID,0.148256,
2007-10-25, 02:23:00,VALID,916.044,VALID,0,VALID,99.9532,VALID,-0.0169808,VALID,19.448,VALID,50,VALID,0,
2007-10-25, 02:24:00,VALID,916.049,VALID,0,VALID,99.9967,VALID,-0.0169808,VALID,19.4378,VALID,50,VALID,0.159339,
2007-10-25, 02:25:00,VALID,916.026,VALID,0,VALID,99.9964,VALID,-0.0339617,VALID,19.4248,VALID,50,VALID,0.0770833,
2007-10-25, 02:26:00,VALID,916.023,VALID,0,VALID,100,VALID,0,VALID,19.4188,VALID,50,VALID,0,
2007-10-25, 02:27:00,VALID,916.022,VALID,0,VALID,100,VALID,0,VALID,19.4218,VALID,50,VALID,0,
2007-10-25, 02:28:00,VALID,916.02,VALID,0,VALID,100,VALID,0.0169808,VALID,19.3996,VALID,50,VALID,0,
2007-10-25, 02:29:00,VALID,916.013,VALID,0,VALID,100,VALID,-0.0169808,VALID,19.3602,VALID,50,VALID,0.027439,
2007-10-25, 02:30:00,VALID,916.005,VALID,0,VALID,100,VALID,-0.0169808,VALID,19.3572,VALID,50,VALID,0.14117,
2007-10-25, 02:31:00,VALID,916.008,VALID,0,VALID,100,VALID,0,VALID,19.3472,VALID,51,VALID,0.190755,
2007-10-25, 02:32:00,VALID,915.99,VALID,0,VALID,100,VALID,-0.0169808,VALID,19.3247,VALID,51,VALID,0.00706845,
2007-10-25, 02:33:00,VALID,915.973,VALID,0,VALID,100,VALID,-0.0169808,VALID,19.3085,VALID,51,VALID,0.0550595,
2007-10-25, 02:34:00,VALID,915.948,VALID,0,VALID,100,VALID,0,VALID,19.2923,VALID,51,VALID,0,
2007-10-25, 02:35:00,VALID,915.915,VALID,0,VALID,100,VALID,-0.0169808,VALID,19.2955,VALID,51,VALID,0.0606399,
2007-10-25, 02:36:00,VALID,915.898,VALID,0,VALID,100,VALID,-0.0169808,VALID,19.3182,VALID,51,VALID,0.00241815,
2007-10-25, 02:37:00,VALID,915.872,VALID,0,VALID,100,VALID,-0.0169808,VALID,19.321,VALID,51,VALID,0,
2007-10-25, 02:38:00,VALID,915.864,VALID,0,VALID,100,VALID,-0.0339617,VALID,19.3118,VALID,51,VALID,0,
2007-10-25, 02:39:00,VALID,915.844,VALID,0,VALID,100,VALID,0,VALID,19.302,VALID,51,VALID,0,
2007-10-25, 02:40:00,VALID,915.826,VALID,0,VALID,100,VALID,0,VALID,19.3053,VALID,51,VALID,0,
2007-10-25, 02:41:00,VALID,915.812,VALID,0,VALID,100,VALID,-0.0169808,VALID,19.2988,VALID,51,VALID,0,
2007-10-25, 02:42:00,VALID,915.803,VALID,0,VALID,100,VALID,-0.0169808,VALID,19.2988,VALID,46,VALID,0,
2007-10-25, 02:43:00,VALID,915.79,VALID,0,VALID,100,VALID,0,VALID,19.2923,VALID,45,VALID,0,
2007-10-25, 02:44:00,VALID,915.782,VALID,0,VALID,100,VALID,-0.0339617,VALID,19.2923,VALID,45,VALID,0,
2007-10-25, 02:45:00,VALID,915.771,VALID,0,VALID,100,VALID,-0.0169808,VALID,19.2856,VALID,45,VALID,0,
2007-10-25, 02:46:00,VALID,915.761,VALID,0,VALID,100,VALID,0,VALID,19.2728,VALID,45,VALID,0,
2007-10-25, 02:47:00,VALID,915.757,VALID,0,VALID,100,VALID,0,VALID,19.2436,VALID,45,VALID,0,
2007-10-25, 02:48:00,VALID,915.75,VALID,0,VALID,100,VALID,0,VALID,19.2144,VALID,37,VALID,0,
2007-10-25, 02:49:00,VALID,915.741,VALID,0,VALID,100,VALID,0,VALID,19.182,VALID,34,VALID,0,
2007-10-25, 02:50:00,VALID,915.733,VALID,0,VALID,100,VALID,-0.0169808,VALID,19.1523,VALID,34,VALID,0,
2007-10-25, 02:51:00,VALID,915.743,VALID,0,VALID,100,VALID,-0.0169808,VALID,19.1396,VALID,34,VALID,0,
2007-10-25, 02:52:00,VALID,915.743,VALID,0,VALID,100,VALID,0.0169808,VALID,19.1431,VALID,34,VALID,0,
2007-10-25, 02:53:00,VALID,915.736,VALID,0,VALID,100,VALID,-0.0169808,VALID,19.1363,VALID,34,VALID,0,
2007-10-25, 02:54:00,VALID,915.734,VALID,0,VALID,100,VALID,-0.0339617,VALID,19.1428,VALID,35,VALID,0.0418527,
2007-10-25, 02:55:00,VALID,915.73,VALID,0,VALID,100,VALID,-0.0509425,VALID,19.1433,VALID,43,VALID,0.329078,
2007-10-25, 02:56:00,VALID,915.73,VALID,0,VALID,100,VALID,-0.0339617,VALID,19.1401,VALID,43,VALID,0,
2007-10-25, 02:57:00,VALID,915.723,VALID,0,VALID,100,VALID,-0.0849042,VALID,19.1269,VALID,43,VALID,0.0930556,
2007-10-25, 02:58:00,VALID,915.72,VALID,0,VALID,100,VALID,-0.0849042,VALID,19.1496,VALID,36,VALID,0.615327,
2007-10-25, 02:59:00,VALID,915.706,VALID,0,VALID,100,VALID,-0.0169808,VALID,19.2144,VALID,36,VALID,0.0406605,
2007-10-25, 03:00:00,VALID,915.72,VALID,0,VALID,100,VALID,-0.0509425,VALID,19.2374,VALID,36,VALID,0,
2007-10-25, 03:01:00,VALID,915.73,VALID,0,VALID,100,VALID,0,VALID,19.2269,VALID,36,VALID,0,
2007-10-25, 03:02:00,VALID,915.73,VALID,0,VALID,100,VALID,-0.0679233,VALID,19.2239,VALID,36,VALID,0,
2007-10-25, 03:03:00,VALID,915.722,VALID,0,VALID,100,VALID,-0.0849042,VALID,19.2179,VALID,36,VALID,0,
2007-10-25, 03:04:00,VALID,915.727,VALID,0,VALID,100,VALID,-0.0339617,VALID,19.1788,VALID,36,VALID,0,
2007-10-25, 03:05:00,VALID,915.712,VALID,0,VALID,100,VALID,-0.0339617,VALID,19.1595,VALID,36,VALID,0,
2007-10-25, 03:06:00,VALID,915.703,VALID,0,VALID,100,VALID,-0.0509425,VALID,19.1528,VALID,36,VALID,0,
2007-10-25, 03:07:00,VALID,915.704,VALID,0,VALID,100,VALID,-0.0339617,VALID,19.1463,VALID,36,VALID,0,
2007-10-25, 03:08:00,VALID,915.694,VALID,0,VALID,100,VALID,0,VALID,19.1204,VALID,36,VALID,0,
2007-10-25, 03:09:00,VALID,915.675,VALID,0,VALID,100,VALID,-0.0339617,VALID,19.1009,VALID,36,VALID,0,
2007-10-25, 03:10:00,VALID,915.678,VALID,0,VALID,100,VALID,-0.0509425,VALID,19.1042,VALID,36,VALID,0.164444,
2007-10-25, 03:11:00,VALID,915.665,VALID,0,VALID,100,VALID,-0.0509425,VALID,19.0879,VALID,36,VALID,0.217076,
2007-10-25, 03:12:00,VALID,915.665,VALID,0,VALID,100,VALID,0,VALID,19.068,VALID,36,VALID,0.00236192,
2007-10-25, 03:13:00,VALID,915.654,VALID,0,VALID,100,VALID,-0.0339617,VALID,19.0657,VALID,36,VALID,0,
2007-10-25, 03:14:00,VALID,915.644,VALID,0,VALID,100,VALID,-0.0679233,VALID,19.059,VALID,36,VALID,0,
2007-10-25, 03:15:00,VALID,915.645,VALID,0,VALID,100,VALID,-0.0509425,VALID,19.0298,VALID,36,VALID,0,
2007-10-25, 03:16:00,VALID,915.636,VALID,0,VALID,100,VALID,-0.0169808,VALID,18.9971,VALID,36,VALID,0,
2007-10-25, 03:17:00,VALID,915.633,VALID,0,VALID,100,VALID,-0.0509425,VALID,18.9844,VALID,42,VALID,0.293899,
2007-10-25, 03:18:00,VALID,915.621,VALID,0,VALID,100,VALID,-0.0169808,VALID,19.0196,VALID,52,VALID,0.644354,
2007-10-25, 03:19:00,VALID,915.605,VALID,0,VALID,100,VALID,-0.0339617,VALID,19.043,VALID,52,VALID,0.630149,
2007-10-25, 03:20:00,VALID,915.603,VALID,0,VALID,100,VALID,-0.0339617,VALID,19.036,VALID,52,VALID,0.608613,
2007-10-25, 03:21:00,VALID,915.583,VALID,0,VALID,100,VALID,-0.0509425,VALID,19.0555,VALID,52,VALID,0.727539,
2007-10-25, 03:22:00,VALID,915.565,VALID,0,VALID,100,VALID,-0.0509425,VALID,19.0587,VALID,52,VALID,0.482515,
2007-10-25, 03:23:00,VALID,915.556,VALID,0,VALID,100,VALID,-0.0679233,VALID,19.0592,VALID,52,VALID,0.464935,
2007-10-25, 03:24:00,VALID,915.541,VALID,0,VALID,100,VALID,-0.0849042,VALID,19.0625,VALID,52,VALID,0.353981,
2007-10-25, 03:25:00,VALID,915.515,VALID,0,VALID,100,VALID,-0.0339617,VALID,19.062,VALID,52,VALID,0.436166,
2007-10-25, 03:26:00,VALID,915.527,VALID,0,VALID,100,VALID,-0.0169808,VALID,19.052,VALID,52,VALID,0.105469,
2007-10-25, 03:27:00,VALID,915.531,VALID,0,VALID,100,VALID,-0.0339617,VALID,19.0555,VALID,52,VALID,0,
2007-10-25, 03:28:00,VALID,915.536,VALID,0,VALID,100,VALID,-0.0679233,VALID,19.0587,VALID,52,VALID,0,
2007-10-25, 03:29:00,VALID,915.534,VALID,0,VALID,100,VALID,-0.0509425,VALID,19.0717,VALID,52,VALID,0,
2007-10-25, 03:30:00,VALID,915.526,VALID,0,VALID,100,VALID,-0.0169808,VALID,19.0877,VALID,52,VALID,0,
2007-10-25, 03:31:00,VALID,915.522,VALID,0,VALID,100,VALID,0,VALID,19.1169,VALID,52,VALID,0.25109,
2007-10-25, 03:32:00,VALID,915.528,VALID,0,VALID,100,VALID,-0.0339617,VALID,19.1493,VALID,52,VALID,0.0625,
2007-10-25, 03:33:00,VALID,915.521,VALID,0,VALID,100,VALID,-0.0679233,VALID,19.1496,VALID,52,VALID,0,
2007-10-25, 03:34:00,VALID,915.505,VALID,0,VALID,100,VALID,-0.0169808,VALID,19.169,VALID,52,VALID,0,
2007-10-25, 03:35:00,VALID,915.497,VALID,0,VALID,100,VALID,-0.0339617,VALID,19.1788,VALID,52,VALID,0,
2007-10-25, 03:36:00,VALID,915.494,VALID,0,VALID,100,VALID,-0.0509425,VALID,19.1655,VALID,52,VALID,0,
2007-10-25, 03:37:00,VALID,915.464,VALID,0,VALID,100,VALID,-0.0169808,VALID,19.1723,VALID,52,VALID,0,
2007-10-25, 03:38:00,VALID,915.479,VALID,0,VALID,100,VALID,-0.0339617,VALID,19.1625,VALID,52,VALID,0,
2007-10-25, 03:39:00,VALID,915.454,VALID,0,VALID,100,VALID,-0.101885,VALID,19.1466,VALID,52,VALID,0,
2007-10-25, 03:40:00,VALID,915.439,VALID,0,VALID,100,VALID,-0.0679233,VALID,19.1463,VALID,52,VALID,0,
2007-10-25, 03:41:00,VALID,915.443,VALID,0,VALID,100,VALID,-0.0509425,VALID,19.1496,VALID,52,VALID,0,
2007-10-25, 03:42:00,VALID,915.426,VALID,0,VALID,100,VALID,-0.0849042,VALID,19.1431,VALID,52,VALID,0,
2007-10-25, 03:43:00,VALID,915.414,VALID,0,VALID,100,VALID,-0.101885,VALID,19.1628,VALID,52,VALID,0,
2007-10-25, 03:44:00,VALID,915.423,VALID,0,VALID,100,VALID,-0.0679233,VALID,19.1628,VALID,52,VALID,0.105655,